[[{"header":{"parameterUnit":"m.s-1","parameterCategory":1,"la1":30.2991,"la2":30.254,"lo1":-89.0895,"lo2":-89.0444,"dy":0.0017,"dx":0.0017,"nx":28,"ny":28,"refTime":"2024-08-09T15:00:00:Z","depth":0,"parameterNumber":2,"parameterNumberName":"U-component_of_WINDS"},"data":[0,0,0,0,0,0,0,0,0,0,0,0,0,0,0,0,0,0,0,0,0,0,0,0,0,0,0,0,0,0,0,0,0,0,0,0,0,0,0,0,0,0,0,0,0,0,0,0,0,0,0,0,0,0,0,0,0,0,0.9004,0.9004,0,0.8992,0.8992,0.8991,0.8964,0.8964,0.8963,0.8963,0.895,0.895,0.895,0,0,0,0,0,0,0,0,0,0,0,0,0,0.9005,0.9005,0.9004,0.9004,0.9004,0.8992,0.8992,0.8991,0.8965,0.8964,0.8963,0.8963,0.8949,0.895,0.895,0,0,0,0,0,0,0,0,0,0,0,0,0,0.9,0.9005,0.9004,0.8989,0.8988,0.8992,0.8992,0.8991,0.8965,0.8964,0.8963,0.8962,0.8949,0.895,0.895,0.8968,0,0,0.8951,0.8951,0,0,0,0,0,0,0,0,0.9,0.9,0.8991,0.899,0.8988,0.8979,0.8987,0.8983,0.8965,0.8973,0.8963,0.8962,0.896,0.8959,0.8959,0.8967,0.8966,0.8951,0.8951,0.8951,0.8951,0,0,0,0,0,0,0,0.9001,0.9,0.8999,0.8991,0.8989,0.8983,0.8981,0.8986,0.8971,0.8973,0.8971,0.897,0.8959,0.8958,0.8958,0.8966,0.8951,0.8951,0.8951,0.8951,0.899,0.8991,0,0,0,0,0,0,0.9003,0.9001,0.9,0.8999,0.8993,0.8984,0.8982,0.8983,0.8971,0.8969,0.897,0.8968,0.8958,0.8958,0.8958,0.8978,0.8951,0.8951,0.8951,0.8989,0.899,0.8991,0,0,0,0,0,0,0.9003,0.9003,0.9,0.8999,0.8998,0.8985,0.8986,0.8983,0.8982,0.8969,0.8967,0.8972,0.8958,0.8957,0.8966,0.8978,0.8951,0.8951,0.8988,0.899,0.8991,0.902,0,0,0,0,0,0,0.9004,0.9004,0.901,0.9,0.8999,0.9008,0.8986,0.8983,0.8983,0.898,0.8971,0.8968,0.8957,0.8966,0.8966,0.8977,0.8951,0.8987,0.8989,0.8991,0.9018,0.9022,0.9026,0,0,0,0,0,0.9004,0.9018,0.901,0.901,0.9006,0.9009,0.9008,0.8995,0.8984,0.899,0.8982,0.8969,0.8976,0.8967,0.8967,0.8979,0.8986,0.8988,0.899,0.9016,0.9021,0.9026,0,0,0,0,0,0,0.9029,0.9016,0.9008,0.9019,0.9015,0.9004,0.9012,0.9001,0.9,0.8997,0.8981,0.8979,0.899,0.8985,0.8975,0.8996,0.8979,0.8982,0.8999,0.9004,0.9007,0.9008,0.8952,0,0,0,0,0,0.9036,0.904,0.9028,0.9039,0.9038,0.9026,0.9026,0.9017,0.9012,0.901,0.9003,0.8999,0.9001,0.9002,0.9002,0.9017,0.9015,0.9026,0.903,0.9033,0.9035,0.9044,0.9048,0.8998,0.8998,0.8998,0,0,0.905,0.9044,0.9047,0.9044,0.904,0.9045,0.9024,0.9029,0.9032,0.9011,0.9019,0.9013,0.9008,0.902,0.9025,0.9016,0.9049,0.9036,0.9038,0.9038,0.9046,0.9051,0.9055,0.9,0.8999,0.8999,0,0,0.9079,0.9074,0.9083,0.908,0.9075,0.9067,0.9069,0.906,0.9056,0.9064,0.9049,0.9052,0.9055,0.9052,0.9051,0.9081,0.9069,0.9082,0.9103,0.9111,0.9115,0.9119,0.913,0.9134,0.9084,0.9084,0.9084,0,0.9097,0.9102,0.9089,0.9096,0.9096,0.9078,0.9087,0.9085,0.908,0.9081,0.9071,0.9076,0.9071,0.9083,0.909,0.909,0.9093,0.9083,0.9116,0.9119,0.9122,0.9133,0.9137,0.9086,0.9086,0.9086,0.9085,0,0.9126,0.913,0.9138,0.9135,0.9136,0.9144,0.9132,0.9135,0.9126,0.9119,0.9128,0.9122,0.9122,0.9124,0.9115,0.9136,0.913,0.9119,0.9101,0.9129,0.9139,0.9142,0.9088,0.9088,0.9087,0.9087,0,0,0.9167,0.9158,0.9162,0.9161,0.9155,0.9158,0.9166,0.9166,0.9169,0.9167,0.9174,0.9178,0.9168,0.9167,0.9157,0.9165,0.919,0.9153,0.9152,0.916,0.9214,0.9222,0.9227,0.9183,0.9183,0.9184,0.9214,0,0.9194,0.9207,0.9196,0.9211,0.9216,0.92,0.9207,0.9205,0.9199,0.9203,0.9196,0.92,0.9186,0.9185,0.9192,0.9186,0.9201,0.9184,0.9189,0.9189,0.9191,0.9232,0.9241,0.9269,0.9218,0.9218,0.9219,0,0.9226,0.9226,0.9242,0.9237,0.9238,0.9245,0.9246,0.9249,0.9246,0.9242,0.9242,0.9231,0.924,0.9224,0.9235,0.9224,0.9226,0.9223,0.9224,0.9223,0.9205,0.9233,0.9278,0.9283,0.9225,0.9224,0.9224,0,0.9255,0.926,0.927,0.927,0.9264,0.9269,0.9267,0.9264,0.9265,0.9266,0.9267,0.9269,0.9269,0.9271,0.9262,0.9251,0.9275,0.9258,0.9272,0.9272,0.9277,0.9277,0.9323,0.9279,0.9279,0.9278,0.9278,0,0.9286,0.9296,0.9284,0.929,0.9302,0.929,0.9302,0.9298,0.9296,0.9302,0.9288,0.9294,0.9281,0.9286,0.9279,0.929,0.929,0.9288,0.9285,0.9289,0.9289,0.9289,0.9287,0.928,0.9279,0.9279,0.9279,0,0.932,0.9312,0.9322,0.9317,0.9316,0.9325,0.932,0.9326,0.932,0.9328,0.9329,0.932,0.9326,0.9317,0.932,0.9316,0.9332,0.9326,0.9332,0.9331,0.9346,0.9344,0.9393,0.94,0.9351,0.9352,0.9352,0,0.934,0.9347,0.9343,0.9346,0.9345,0.935,0.9352,0.9342,0.9345,0.9344,0.935,0.9355,0.9357,0.9366,0.9361,0.9364,0.9359,0.9376,0.9359,0.9362,0.9359,0.9359,0.936,0.9379,0.938,0.938,0.938,0,0.9376,0.9372,0.9375,0.9378,0.9381,0.9383,0.9384,0.9387,0.9376,0.9381,0.9386,0.9388,0.9393,0.9398,0.94,0.9398,0.9388,0.9386,0.939,0.9393,0.9396,0.9395,0.9342,0.9385,0.9384,0.9384,0.9384,0.9383,0.9403,0.941,0.9409,0.9413,0.9413,0.9415,0.9421,0.9417,0.9421,0.9424,0.9418,0.9426,0.9425,0.9427,0.9427,0.9433,0.9425,0.943,0.9431,0.9432,0.9435,0.9396,0.9433,0.9433,0.9433,0.9433,0.9433,0,0.9439,0.9438,0.9442,0.9444,0.9449,0.944,0.9441,0.9445,0.9451,0.9452,0.9455,0.9463,0.9468,0.9463,0.9468,0.9473,0.9469,0.9475,0.9474,0.9474,0.9441,0.9438,0.9479,0.9479,0.9479,0.9479,0.9479,0.9479,0.9457,0.9469,0.9465,0.9477,0.9476,0.9483,0.9485,0.9487,0.9487,0.9496,0.95,0.9498,0.9497,0.9501,0.9506,0.9504,0.9507,0.9514,0.9512,0.9481,0.9476,0.9472,0.9469,0.9515,0.9515,0.9544,0.9544,0.9544]},{"header":{"parameterUnit":"m.s-1","parameterCategory":1,"la1":30.2991,"la2":30.254,"lo1":-89.0895,"lo2":-89.0444,"dy":0.0017,"dx":0.0017,"nx":28,"ny":28,"refTime":"2024-08-09T15:00:00:Z","depth":0,"parameterNumber":3,"parameterNumberName":"V-component_of_WINDS"},"data":[0,0,0,0,0,0,0,0,0,0,0,0,0,0,0,0,0,0,0,0,0,0,0,0,0,0,0,0,0,0,0,0,0,0,0,0,0,0,0,0,0,0,0,0,0,0,0,0,0,0,0,0,0,0,0,0,0,0,-4.2465,-4.2466,0,-4.2583,-4.2585,-4.2586,-4.2546,-4.2543,-4.2541,-4.2538,-4.2655,-4.266,-4.2666,0,0,0,0,0,0,0,0,0,0,0,0,0,-4.2201,-4.2206,-4.2465,-4.2466,-4.2468,-4.2583,-4.2585,-4.2586,-4.2546,-4.2543,-4.254,-4.2537,-4.2653,-4.266,-4.2666,0,0,0,0,0,0,0,0,0,0,0,0,0,-4.2317,-4.2207,-4.2465,-4.2462,-4.2463,-4.2583,-4.2585,-4.2587,-4.2547,-4.2543,-4.2539,-4.2536,-4.2651,-4.2659,-4.2667,-4.2795,0,0,-4.2692,-4.2696,0,0,0,0,0,0,0,0,-4.231,-4.2326,-4.2461,-4.2462,-4.2464,-4.2546,-4.2534,-4.2657,-4.2548,-4.2515,-4.2538,-4.2534,-4.2622,-4.2632,-4.2663,-4.2801,-4.2806,-4.2693,-4.2698,-4.2702,-4.2704,0,0,0,0,0,0,0,-4.2302,-4.2321,-4.2512,-4.2463,-4.2465,-4.2453,-4.2466,-4.2557,-4.2588,-4.2518,-4.2515,-4.253,-4.2622,-4.2655,-4.2665,-4.2808,-4.2693,-4.27,-4.2705,-4.2709,-4.3057,-4.3061,0,0,0,0,0,0,-4.2294,-4.2315,-4.2508,-4.2515,-4.2376,-4.2461,-4.2475,-4.2523,-4.2587,-4.2593,-4.2533,-4.2527,-4.2642,-4.2655,-4.2669,-4.2823,-4.2702,-4.2709,-4.2714,-4.3052,-4.3057,-4.3062,0,0,0,0,0,0,-4.2288,-4.2312,-4.2503,-4.2414,-4.2438,-4.247,-4.2525,-4.2528,-4.2561,-4.2599,-4.2604,-4.2561,-4.264,-4.2657,-4.2765,-4.2827,-4.2713,-4.2721,-4.3047,-4.3054,-4.306,-4.3133,0,0,0,0,0,0,-4.2281,-4.231,-4.236,-4.2416,-4.2443,-4.2598,-4.2528,-4.2533,-4.2576,-4.257,-4.2627,-4.2633,-4.2638,-4.2752,-4.2773,-4.2836,-4.2727,-4.3042,-4.305,-4.3058,-4.3125,-4.3141,-4.3155,0,0,0,0,0,-4.2272,-4.2375,-4.2363,-4.2386,-4.2506,-4.2602,-4.2617,-4.2623,-4.2581,-4.2631,-4.2655,-4.2631,-4.2817,-4.2764,-4.2786,-4.2853,-4.3038,-4.3048,-4.3057,-4.3118,-4.3138,-4.3154,0,0,0,0,0,0,-4.2324,-4.2382,-4.2369,-4.2494,-4.2544,-4.2595,-4.2658,-4.2643,-4.2705,-4.2696,-4.2699,-4.2713,-4.2823,-4.2848,-4.2789,-4.298,-4.2921,-4.2935,-4.296,-4.2978,-4.2993,-4.2984,-4.2734,0,0,0,0,0,-4.235,-4.2425,-4.2471,-4.2576,-4.2602,-4.2626,-4.2668,-4.2668,-4.2719,-4.2739,-4.2771,-4.2821,-4.289,-4.2935,-4.3001,-4.3128,-4.314,-4.3185,-4.32,-4.3212,-4.3225,-4.3293,-4.3314,-4.3094,-4.3094,-4.3094,0,0,-4.2405,-4.2446,-4.2492,-4.2588,-4.2626,-4.2702,-4.2644,-4.2726,-4.2782,-4.2751,-4.2855,-4.288,-4.2935,-4.3053,-4.3106,-4.3078,-4.3288,-4.3224,-4.3234,-4.324,-4.3305,-4.3326,-4.3345,-4.31,-4.3099,-4.3098,0,0,-4.2543,-4.2582,-4.2674,-4.2714,-4.2774,-4.2789,-4.2811,-4.2866,-4.2882,-4.2986,-4.2964,-4.303,-4.3149,-4.3189,-4.3225,-4.3379,-4.3358,-4.34,-4.3477,-4.3544,-4.3562,-4.3577,-4.3631,-4.3651,-4.3412,-4.3413,-4.3413,0,-4.2604,-4.2718,-4.2723,-4.2808,-4.285,-4.2827,-4.292,-4.2958,-4.3035,-4.3064,-4.3031,-4.3181,-4.3216,-4.3343,-4.338,-4.341,-4.3435,-4.3394,-4.3559,-4.3574,-4.3589,-4.3641,-4.3661,-4.3417,-4.3417,-4.3416,-4.3416,0,-4.2789,-4.2869,-4.2936,-4.3013,-4.3062,-4.315,-4.3168,-4.3217,-4.3213,-4.3231,-4.3337,-4.3379,-4.3453,-4.3483,-4.3479,-4.3609,-4.3589,-4.3558,-4.3498,-4.3614,-4.3663,-4.3683,-4.3424,-4.3422,-4.3421,-4.342,0,0,-4.2964,-4.3043,-4.3067,-4.3102,-4.3166,-4.3227,-4.3313,-4.3387,-4.3429,-4.3483,-4.3555,-4.3657,-4.3628,-4.3669,-4.3669,-4.3728,-4.3847,-4.3689,-4.369,-4.3717,-4.3992,-4.4016,-4.4039,-4.3833,-4.3837,-4.384,-4.3987,0,-4.3107,-4.3262,-4.3269,-4.3408,-4.3481,-4.346,-4.3536,-4.3582,-4.3602,-4.3665,-4.3686,-4.3758,-4.3715,-4.3739,-4.3797,-4.382,-4.3902,-4.381,-4.3899,-4.3903,-4.3887,-4.4064,-4.409,-4.4227,-4.4007,-4.401,-4.4012,0,-4.3296,-4.3357,-4.3505,-4.3558,-4.3589,-4.3657,-4.3725,-4.3787,-4.3838,-4.3848,-4.3894,-4.3886,-4.3973,-4.391,-4.403,-4.3967,-4.4004,-4.4021,-4.4026,-4.4035,-4.3965,-4.4078,-4.427,-4.4291,-4.4042,-4.404,-4.4038,0,-4.3409,-4.3528,-4.3632,-4.3662,-4.3727,-4.3775,-4.3804,-4.3852,-4.3896,-4.3955,-4.3983,-4.4051,-4.4088,-4.4139,-4.4149,-4.4103,-4.4268,-4.4207,-4.4278,-4.4278,-4.4314,-4.4312,-4.4516,-4.4338,-4.4338,-4.4337,-4.4337,0,-4.3568,-4.3659,-4.3683,-4.3747,-4.3848,-4.3855,-4.3954,-4.3979,-4.4022,-4.4089,-4.4074,-4.4137,-4.4146,-4.4211,-4.4219,-4.4316,-4.4333,-4.4342,-4.4343,-4.4344,-4.4343,-4.4368,-4.4359,-4.4343,-4.4342,-4.434,-4.434,0,-4.3712,-4.3731,-4.3843,-4.3896,-4.3911,-4.3983,-4.4027,-4.4088,-4.4105,-4.4191,-4.4211,-4.4238,-4.4314,-4.4329,-4.4417,-4.4422,-4.4539,-4.453,-4.4522,-4.4521,-4.4592,-4.4585,-4.4819,-4.485,-4.4652,-4.4654,-4.4655,0,-4.3812,-4.3882,-4.3943,-4.3988,-4.4019,-4.4091,-4.4136,-4.4145,-4.4192,-4.4257,-4.4309,-4.4383,-4.4443,-4.4565,-4.4591,-4.4659,-4.4652,-4.4729,-4.4662,-4.466,-4.4653,-4.4649,-4.4656,-4.4742,-4.4744,-4.4746,-4.4747,0,-4.3989,-4.3996,-4.4062,-4.4132,-4.4187,-4.4242,-4.4294,-4.4331,-4.4346,-4.44,-4.4478,-4.4525,-4.4616,-4.469,-4.4757,-4.4785,-4.4769,-4.4768,-4.4789,-4.479,-4.4783,-4.4787,-4.4557,-4.4763,-4.4761,-4.476,-4.4759,-4.4759,-4.4114,-4.4175,-4.4228,-4.4302,-4.4342,-4.4392,-4.4451,-4.4477,-4.4543,-4.4619,-4.4619,-4.4705,-4.4754,-4.4843,-4.4875,-4.4941,-4.4916,-4.4945,-4.4953,-4.496,-4.4967,-4.4772,-4.4953,-4.4953,-4.4952,-4.4952,-4.4952,0,-4.429,-4.4323,-4.4391,-4.4466,-4.4524,-4.4505,-4.4562,-4.4611,-4.4687,-4.4735,-4.4795,-4.4884,-4.4955,-4.4988,-4.5058,-4.5104,-4.5098,-4.5122,-4.5119,-4.5125,-4.4985,-4.496,-4.5126,-4.5126,-4.5126,-4.5126,-4.5126,-4.5126,-4.4389,-4.4491,-4.4504,-4.4625,-4.4657,-4.4742,-4.4776,-4.4821,-4.4859,-4.496,-4.502,-4.5041,-4.5083,-4.5156,-4.522,-4.5227,-4.5254,-4.5281,-4.5285,-4.5153,-4.5135,-4.5118,-4.5096,-4.5287,-4.5287,-4.542,-4.5422,-4.5423]}]]